Location: Unspecified
(35.3830°S, 0.0000°E)
Time: 02:10:18
(UTC+00:00)

ISS - Visible Passes

Search period start: 23 October 2019 00:00
Search period end: 02 November 2019 00:00
Orbit: 411 x 421 km, 51.6° (Epoch: 23 October)

Date Brightness Start Highest point End Pass type
(mag) Time Alt. Az. Time Alt. Az. Time Alt. Az.
23 Oct -1.1 18:46:10 10° W 18:48:50 21° SSW 18:51:33 10° SSE visible
30 Oct -0.7 21:13:42 10° SSW 21:14:28 14° SSW 21:14:28 14° SSW visible
31 Oct -1.3 20:25:33 10° S 20:27:36 15° SSE 20:27:40 15° SSE visible
01 Nov -1.0 19:37:54 10° S 19:38:40 11° SSE 19:39:28 10° SE visible
01 Nov -0.9 21:12:40 10° SW 21:13:46 19° SW 21:13:46 19° SW visible
